Regional Weather Roundup
Issued by NWS Nashville, TN

Home | Current Version | Previous Version | Text Only | Print | Product List | Glossary On
Versions: 1 2 3 4 5 6 7 8 9 10 11 12 13 14 15 16 17 18 19 20 21 22 23 24 25 26 27
000
ASUS44 KOHX 251410
RWROHX
MIDDLE TENNESSEE HOURLY WEATHER ROUNDUP
NATIONAL WEATHER SERVICE NASHVILLE TN
900 AM CDT WED APR 25 2018

NOTE: "FAIR" INDICATES FEW OR NO CLOUDS BELOW 12,000 FEET WITH
NO SIGNIFICANT WEATHER AND/OR OBSTRUCTIONS TO VISIBILITY.

* THESE REPORTS ARE NOT UNDER NWS QUALITY CONTROL AND MAY NOT
  REPORT WEATHER SUCH AS PRECIPITATION AND FOG.


TNZ005>011-023>034-057-059-062>066-078-080-251500
...NORTHERN MIDDLE TENNESSEE...

CITY           SKY/WX    TMP DP  RH WIND       PRES   REMARKS
CLARKSVILLE      N/A     60  53  77 N6        30.01S
CROSSVILLE     CLOUDY    52  50  93 NW10      29.97R FOG
GALLATIN       CLOUDY    59  52  77 N10       30.03S
LEBANON        CLOUDY    57  52  82 N9G16     29.99S
LIVINGSTON     PTSUNNY   54  52  94 NW7       29.97S
NASHVILLE        N/A     62  52  69 N10G20    30.00F
PORTLAND       CLOUDY    55  54  94 N9        30.00S FOG
SMYRNA         PTSUNNY   59  53  80 N10       30.01F
SPARTA         CLOUDY    55  54  94 NW6G12    29.97S
SPRINGFIELD    PTSUNNY   59  55  88 N12       30.00S
WEST NASHVILLE PTSUNNY   61  54  77 N7        29.99S
$$
TNZ056-058-060-061-075>077-079-093>097-251500
...SOUTHERN MIDDLE TENNESSEE...

CITY           SKY/WX    TMP DP  RH WIND       PRES   REMARKS
COLUMBIA       CLOUDY    59  59 100 VRB5G12   30.01R
FAYETTEVILLE   CLOUDY    57  54  88 N7        30.00R
LEWISBURG      CLOUDY    59  54  82 N7        30.00S
MCMINNVILLE    CLOUDY    55  52  88 NW8       29.99S
MURFREESBORO   CLOUDY    57  52  82 N9G17     29.99S
PULASKI        CLOUDY    61  54  77 N8G14     30.02R
SHELBYVILLE    CLOUDY    57  54  88 N8        30.00S
TULLAHOMA      CLOUDY    55  52  88 N9        29.99S
WINCHESTER     CLOUDY    55  52  88 N8G15     29.99S
$$


...KEY TO REMARKS...
VSB - VISIBILITY IN MILES
WCI - WIND CHILL INDEX
HX  - HEAT INDEX





USA.gov is the U.S. government's official web portal to all federal, state and local government web resources and services.